Weather in Imenevo

Russia / Chuvash Republic     55°47′12″N   47°18′32″E
temp.,
°C
wind,
m/s
gust,
m/s
humid.,
%
clouds,
%
prec.,
mm/h
press.,
hPa
HPBL,
m
4 december, sat
sat400:00+2s61495100 0.0 1007485
03:00+4ssw81693100 0.0 1004665
06:00+5ssw101985100 0.0 1000853
09:00+3ssw101897100 1.1 10001208
12:00+1wsw61188100 0.9 1004881
15:000wsw611815 0.9 1005486
18:00−2wsw6128257 0.0 1007733
21:00−2wsw6118199 0.1 1008938
5 december, sun
sun500:00−3wsw6118497 0.0 1009746
03:00−3w698197 0.1 1011884
06:00−3w5983100 0.1 1013841
09:00−4w577997 0.1 1015853
12:00−3wnw5770100 0.0 1016972
15:00−3wnw3672100 0.0 1017766
18:00−4wnw2375100 0.0 1018541
21:00−5n1189100 0.1 1019229
6 december, mon
mon600:00−5nne118984 0.1 1021188
03:00−6ne228988 0.1 1022210
06:00−6ene338780 0.1 1023227
09:00−7e338792 0.1 1025227
12:00−5ese238594 0.1 1026286
15:00−5e3388100 0.1 1026232
18:00−5ese359199 0.1 1027217
21:00−5ese3692100 0.1 1028229
7 december, tue
tue700:00−4se4792100 0.0 1028247
03:00−4se4889100 0.0 1028275
06:00−4se5109184 0.0 1028307
09:00−4se61389100 0.0 1027444
12:00−2se71480100 0.0 1026655
15:00−3sse71581100 0.1 1025705
18:00−3sse91794100 1.5 1022718
21:00−3sse81695100 5.4 1020601
8 december, wed
wed800:00−2sse71496100 2.4 1018497
03:000s61497100 4.8 1016500
06:00+2s71697100 2.5 1015518
09:00+2ssw71594100 2.8 1015513
12:00+3ssw71593100 0.0 1016513
15:00+2ssw51190100 0.0 1017286
18:000s3595100 0.0 101871
21:00+1sse3896100 0.0 1018183